CW4592 Weather Reports


Display with metric or nautical units.
time (UTC)temp
F
wind
direction
speed
MPH
gust
MPH
rain 1hr
in
rain 24hr
in
rain mn
in
humidity
%
barometer
mb
20260906193459 79 111 2.0 6.0 0.00 0.17 0.17 75 1015.6
20260906192959 79 95 2.0 7.0 0.00 0.17 0.17 75 1015.7
20260906192500 78 77 2.0 8.0 0.00 0.17 0.17 77 1015.7
20260906191959 78 70 2.0 8.0 0.00 0.17 0.17 76 1015.9
20260906191500 78 73 2.0 7.0 0.00 0.17 0.17 77 1015.9
20260906191000 77 75 3.0 9.0 0.00 0.17 0.17 80 1016.0
20260906190500 76 71 3.0 9.0 0.00 0.17 0.17 82 1016.2
20260906185459 74 72 2.0 8.0 0.00 0.17 0.17 96 1016.5
20260906185000 73 74 3.0 8.0 0.00 0.17 0.17 97 1016.5
20260906184500 72 72 2.0 10.0 0.00 0.17 0.17 97 1016.5
20260906183500 72 70 1.0 6.0 0.00 0.17 0.17 97 1016.6
20260906183000 72 63 1.0 6.0 0.00 0.17 0.17 97 1016.7
20260906182500 71 61 0.0 5.0 0.00 0.17 0.17 97 1016.9
20260906181500 71 59 0.0 6.0 0.00 0.17 0.17 98 1017.0
20260906181000 71 66 0.0 6.0 0.00 0.17 0.17 98 1017.0
20260906180500 71 326 0.0 4.0 0.00 0.17 0.17 98 1017.0
20260906175959 71 331 0.0 4.0 0.00 0.17 0.17 98 1016.9
20260906175500 72 314 0.0 3.0 0.00 0.17 0.17 98 1016.9
20260906174959 71 309 0.0 3.0 0.00 0.17 0.17 98 1016.9
20260906174500 71 327 0.0 6.0 0.00 0.17 0.17 98 1016.7
20260906174000 70 327 1.0 6.0 0.00 0.17 0.17 98 1016.8
20260906172959 70 324 1.0 6.0 0.00 0.17 0.17 98 1017.1
20260906172500 69 323 1.0 6.0 0.00 0.17 0.17 98 1017.1
20260906172000 69 319 1.0 6.0 0.00 0.17 0.17 98 1017.3
20260906171459 68 316 0.0 6.0 0.00 0.17 0.17 98 1017.3
20260906171000 69 311 0.0 4.0 0.00 0.17 0.17 98 1017.4
20260906170459 69 310 0.0 4.0 0.00 0.17 0.17 98 1017.4
20260906170000 70 308 0.0 1.0 0.00 0.17 0.17 98 1017.5
20260906165459 70 310 0.0 2.0 0.00 0.17 0.17 98 1017.4
20260906165000 70 310 0.0 2.0 0.00 0.17 0.17 98 1017.3
20260906164500 70 0 0.0 0.0 0.00 0.17 0.17 98 1017.4
20260906164000 70 0 0.0 0.0 0.00 0.17 0.17 98 1017.5
20260906163500 71 0 0.0 0.0 0.00 0.17 0.17 98 1017.5
20260906162959 70 0 0.0 0.0 0.00 0.17 0.17 98 1017.5
20260906162459 71 0 0.0 0.0 0.00 0.17 0.17 98 1017.2
20260906162000 70 0 0.0 0.0 0.00 0.17 0.17 98 1016.7
20260906161500 70 0 0.0 0.0 0.00 0.17 0.17 98 1016.6
20260906160500 70 0 0.0 0.0 0.01 0.17 0.17 98 1016.0
20260906160000 70 0 0.0 0.0 0.03 0.17 0.17 98 1015.8
20260906155500 70 0 0.0 0.0 0.06 0.17 0.17 98 1015.7
20260906155000 70 0 0.0 0.0 0.10 0.17 0.17 98 1015.8
20260906154459 70 0 0.0 0.0 0.11 0.17 0.17 98 1015.9
20260906153959 70 0 0.0 0.0 0.12 0.17 0.17 98 1015.9
20260906153500 70 0 0.0 0.0 0.14 0.17 0.17 98 1016.0
20260906152959 70 0 0.0 0.0 0.16 0.17 0.17 98 1015.9
20260906152500 70 0 0.0 0.0 0.16 0.17 0.17 98 1016.2
20260906151459 70 0 0.0 0.0 0.16 0.17 0.17 98 1016.2
20260906150959 70 0 0.0 0.0 0.16 0.17 0.17 98 1016.1
20260906145459 71 94 0.0 2.0 0.10 0.11 0.11 98 1017.4
20260906145000 71 94 0.0 2.0 0.06 0.07 0.07 98 1017.6
20260906144459 71 0 0.0 0.0 0.05 0.06 0.06 98 1017.8
20260906144000 71 0 0.0 0.0 0.04 0.05 0.05 98 1017.5
20260906142000 70 197 1.0 9.0 0.01 0.01 0.01 98 1017.4
20260906141500 70 0 0.0 0.0 0.01 0.01 0.01 98 1016.4
20260906141000 70 304 0.0 3.0 0.01 0.01 0.01 98 1016.4
20260906140500 70 304 0.0 3.0 0.01 0.01 0.01 98 1016.3
20260906140000 70 0 0.0 0.0 0.01 0.01 0.01 98 1016.3
20260906135500 70 0 0.0 0.0 0.01 0.01 0.01 98 1016.4
20260906134500 71 289 0.0 1.0 0.01 0.01 0.01 98 1016.5
20260906133959 71 227 0.0 5.0 0.01 0.01 0.01 98 1016.9
20260906133500 72 201 1.0 6.0 0.01 0.01 0.01 98 1016.9
20260906132959 72 195 1.0 6.0 0.01 0.01 0.01 98 1017.2
20260906132459 72 191 0.0 3.0 0.00 0.00 0.00 98 1016.3
20260906131959 72 0 0.0 0.0 0.00 0.00 0.00 98 1016.0
20260906130959 72 0 0.0 0.0 0.00 0.00 0.00 98 1016.0
20260906130500 72 0 0.0 0.0 0.00 0.00 0.00 98 1016.0
20260906125959 72 0 0.0 0.0 0.00 0.00 0.00 98 1015.8
20260906125459 72 0 0.0 0.0 0.00 0.00 0.00 97 1015.9
20260906125000 72 0 0.0 0.0 0.00 0.00 0.00 97 1015.9
20260906124500 72 0 0.0 0.0 0.00 0.00 0.00 97 1016.0
20260906123959 72 0 0.0 0.0 0.00 0.00 0.00 97 1016.0
20260906123459 72 0 0.0 0.0 0.00 0.00 0.00 97 1015.9
20260906122959 73 295 0.0 2.0 0.00 0.00 0.00 97 1016.0
20260906122459 73 281 0.0 4.0 0.00 0.00 0.00 97 1015.9
20260906121959 73 264 0.0 4.0 0.00 0.00 0.00 97 1015.8
20260906120959 73 237 0.0 2.0 0.00 0.00 0.00 96 1015.6
20260906120459 74 216 0.0 5.0 0.00 0.00 0.00 94 1015.9
20260906115959 75 202 0.0 5.0 0.00 0.00 0.00 90 1015.7
20260906115459 75 0 0.0 0.0 0.00 0.00 0.00 91 1015.5
20260906114959 75 0 0.0 0.0 0.00 0.00 0.00 92 1015.5
20260906114459 75 0 0.0 0.0 0.00 0.00 0.00 92 1015.5
20260906113959 75 0 0.0 0.0 0.00 0.00 0.00 92 1015.4
20260906112959 75 273 1.0 4.0 0.00 0.00 0.00 91 1015.4
20260906112458 75 156 0.0 4.0 0.00 0.00 0.00 90 1014.8
20260906111959 75 0 0.0 0.0 0.00 0.00 0.00 90 1014.5
20260906111459 75 118 0.0 2.0 0.00 0.00 0.00 91 1014.3
20260906110959 75 119 0.0 2.0 0.00 0.00 0.00 91 1014.2
20260906110459 75 128 0.0 2.0 0.00 0.00 0.00 91 1014.2
20260906105959 75 130 0.0 2.0 0.00 0.00 0.00 91 1014.3
20260906105459 75 126 0.0 2.0 0.00 0.00 0.00 92 1014.3
20260906104959 75 126 0.0 2.0 0.00 0.00 0.00 92 1014.2
20260906104459 75 0 0.0 0.0 0.00 0.00 0.00 92 1014.1
20260906103959 75 68 0.0 1.0 0.00 0.00 0.00 92 1014.1
20260906103459 75 77 0.0 2.0 0.00 0.00 0.00 92 1014.1
20260906102959 75 71 0.0 2.0 0.00 0.00 0.00 92 1014.1
20260906102459 75 67 0.0 2.0 0.00 0.00 0.00 92 1014.1
20260906101959 75 83 0.0 2.0 0.00 0.00 0.00 92 1014.2
20260906101459 75 89 0.0 2.0 0.00 0.00 0.00 92 1014.2
20260906101000 75 114 0.0 1.0 0.00 0.00 0.00 92 1014.3
20260906095959 75 106 0.0 2.0 0.00 0.00 0.00 92 1014.4
20260906095459 75 106 0.0 2.0 0.00 0.00 0.00 92 1014.4
20260906094959 75 106 0.0 2.0 0.00 0.00 0.00 93 1014.4
20260906094459 75 0 0.0 0.0 0.00 0.00 0.00 93 1014.4
20260906093959 75 0 0.0 0.0 0.00 0.00 0.00 92 1014.3
20260906093458 75 0 0.0 0.0 0.00 0.00 0.00 92 1014.1
20260906092959 76 0 0.0 0.0 0.00 0.00 0.00 92 1014.1
20260906092459 76 0 0.0 0.0 0.00 0.00 0.00 92 1014.1
20260906091959 76 116 0.0 2.0 0.00 0.00 0.00 92 1014.1
20260906091459 76 119 0.0 2.0 0.00 0.00 0.00 92 1014.1
20260906090458 76 121 0.0 3.0 0.00 0.00 0.00 92 1014.1
20260906085959 76 0 0.0 0.0 0.00 0.00 0.00 92 1014.2
20260906085459 76 0 0.0 0.0 0.00 0.00 0.00 92 1014.1
20260906084459 76 109 0.0 2.0 0.00 0.00 0.00 92 1014.3
20260906083959 76 97 0.0 2.0 0.00 0.00 0.00 92 1014.3
20260906083459 76 97 0.0 2.0 0.00 0.00 0.00 93 1014.4
20260906082959 76 0 0.0 0.0 0.00 0.00 0.00 93 1014.5
20260906081959 76 0 0.0 0.0 0.00 0.00 0.00 93 1014.6
20260906081459 76 0 0.0 0.0 0.00 0.00 0.00 93 1014.7
20260906080958 76 0 0.0 0.0 0.00 0.00 0.00 93 1014.7
20260906080459 76 0 0.0 0.0 0.00 0.00 0.00 93 1014.7
20260906075459 76 0 0.0 0.0 0.00 0.00 0.00 93 1014.8
20260906074958 76 0 0.0 0.0 0.00 0.00 0.00 93 1014.8
20260906074459 76 0 0.0 0.0 0.00 0.00 0.00 93 1014.9
20260906073959 76 0 0.0 0.0 0.00 0.00 0.00 93 1014.9
20260906073459 76 121 0.0 3.0 0.00 0.00 0.00 93 1014.8
20260906072958 76 121 0.0 3.0 0.00 0.00 0.00 93 1014.6
20260906071959 76 112 0.0 2.0 0.00 0.00 0.00 93 1014.4
20260906071458 76 114 0.0 2.0 0.00 0.00 0.00 93 1014.4
20260906070959 76 126 0.0 2.0 0.00 0.00 0.00 92 1014.3
20260906070459 76 116 0.0 3.0 0.00 0.00 0.00 92 1014.5
20260906065958 76 113 0.0 5.0 0.00 0.00 0.00 92 1014.4
20260906065459 76 115 1.0 5.0 0.00 0.00 0.00 92 1014.5
20260906064958 76 121 1.0 6.0 0.00 0.00 0.00 92 1014.5
20260906064459 76 126 0.0 6.0 0.00 0.00 0.00 92 1014.6
20260906063959 76 122 0.0 5.0 0.00 0.00 0.00 92 1014.4
20260906063458 77 112 0.0 3.0 0.00 0.00 0.00 91 1014.4
20260906062959 77 120 0.0 4.0 0.00 0.00 0.00 91 1014.6
20260906061959 77 117 0.0 1.0 0.00 0.00 0.00 91 1014.5
20260906061459 77 108 0.0 3.0 0.00 0.00 0.00 91 1014.5
20260906060958 77 118 0.0 4.0 0.00 0.00 0.00 90 1014.6
20260906060459 77 104 0.0 4.0 0.00 0.00 0.00 90 1014.6
20260906055959 77 84 0.0 3.0 0.00 0.00 0.00 90 1014.7
20260906055459 77 90 0.0 3.0 0.00 0.00 0.00 90 1014.7
20260906054958 77 106 0.0 3.0 0.00 0.00 0.00 90 1014.6
20260906054459 77 120 0.0 3.0 0.00 0.00 0.00 90 1014.7
20260906053958 77 122 0.0 2.0 0.00 0.00 0.00 90 1014.7
20260906053459 77 87 0.0 2.0 0.00 0.00 0.00 90 1014.8
20260906052959 77 76 0.0 3.0 0.00 0.00 0.00 89 1014.6
20260906052459 78 93 0.0 4.0 0.00 0.00 0.00 89 1014.7
20260906051958 78 112 0.0 4.0 0.00 0.00 0.00 89 1014.6
20260906051459 78 89 1.0 3.0 0.00 0.00 0.00 89 1014.6
20260906050958 78 76 1.0 3.0 0.00 0.00 0.00 89 1014.6
20260906050458 78 86 0.0 5.0 0.00 0.00 0.00 88 1014.8
20260906045959 78 111 0.0 5.0 0.00 0.00 0.00 88 1014.7
20260906044959 78 74 1.0 3.0 0.00 0.00 0.00 87 1014.6
20260906044459 79 72 1.0 4.0 0.00 0.00 0.00 87 1014.7
20260906043958 79 80 0.0 4.0 0.00 0.00 0.00 87 1014.7
20260906043459 79 106 0.0 3.0 0.00 0.00 0.00 87 1014.7
20260906042958 79 130 0.0 3.0 0.00 0.00 0.00 87 1014.8
20260906042459 79 115 0.0 6.0 0.00 0.00 0.00 86 1015.0
20260906041958 79 106 0.0 6.0 0.00 0.00 0.00 86 1015.0
20260906040959 79 92 1.0 6.0 0.00 0.00 0.00 86 1015.0
20260906035958 79 77 1.0 6.0 0.00 0.00 0.00 87 1014.8
20260906035459 79 81 1.0 6.0 0.00 0.00 0.00 87 1014.6
20260906034958 79 85 1.0 6.0 0.00 0.00 0.00 87 1014.6
20260906033958 80 85 1.0 4.0 0.00 0.00 0.00 86 1014.6
20260906033458 80 94 0.0 4.0 0.00 0.00 0.00 86 1014.8
20260906032958 80 84 1.0 4.0 0.00 0.00 0.00 86 1014.8
20260906032458 80 80 1.0 7.0 0.00 0.00 0.00 86 1014.7
20260906031458 80 79 1.0 6.0 0.00 0.00 0.00 86 1014.7
20260906030458 80 71 1.0 5.0 0.00 0.00 0.00 86 1014.7
20260906025958 80 71 1.0 3.0 0.00 0.00 0.00 87 1014.7
20260906025458 80 69 1.0 4.0 0.00 0.00 0.00 87 1014.8
20260906024458 80 72 1.0 4.0 0.00 0.00 0.00 87 1014.8
20260906023958 80 70 1.0 4.0 0.00 0.00 0.00 87 1014.8
20260906023458 80 70 2.0 4.0 0.00 0.00 0.00 87 1014.8
20260906022458 80 70 3.0 6.0 0.00 0.00 0.00 86 1014.4
20260906021958 80 70 2.0 6.0 0.00 0.00 0.00 85 1014.3
20260906021458 80 71 2.0 5.0 0.00 0.00 0.00 85 1014.3
20260906020959 81 72 1.0 4.0 0.00 0.00 0.00 84 1014.2
20260906020458 81 73 1.0 3.0 0.00 0.00 0.00 84 1014.1
20260906015958 81 69 0.0 3.0 0.00 0.00 0.00 84 1013.9
20260906015458 81 70 0.0 2.0 0.00 0.00 0.00 84 1013.7
20260906014958 81 71 1.0 3.0 0.00 0.00 0.00 83 1013.6
20260906014458 82 68 0.0 3.0 0.00 0.00 0.00 83 1013.4
20260906013958 82 54 0.0 1.0 0.00 0.00 0.00 82 1013.1
20260906012458 83 70 0.0 2.0 0.00 0.00 0.00 80 1012.8
20260906011958 83 78 0.0 2.0 0.00 0.00 0.00 79 1012.7
20260906011458 83 90 0.0 1.0 0.00 0.00 0.00 79 1012.8
20260906010958 84 118 0.0 1.0 0.00 0.00 0.00 79 1012.7
20260906010458 84 120 0.0 1.0 0.00 0.00 0.00 78 1012.7
20260906005958 84 0 0.0 0.0 0.00 0.00 0.00 78 1012.7
20260906005458 84 118 0.0 1.0 0.00 0.00 0.00 77 1012.7
20260906004959 85 118 0.0 1.0 0.00 0.00 0.00 76 1012.8
20260906004458 85 136 0.0 1.0 0.00 0.00 0.00 76 1012.8
20260906003958 86 218 0.0 2.0 0.00 0.00 0.00 75 1012.8
20260906003459 86 220 0.0 2.0 0.00 0.00 0.00 74 1013.0
20260906002958 86 198 0.0 1.0 0.00 0.00 0.00 74 1013.0
20260906002458 86 209 0.0 2.0 0.00 0.00 0.00 73 1013.1
20260906001958 87 203 0.0 2.0 0.00 0.00 0.00 73 1013.2
20260906001458 87 183 0.0 4.0 0.00 0.00 0.00 72 1013.2
20260906000957 87 187 0.0 4.0 0.00 0.00 0.00 71 1013.1
20260906000458 87 199 0.0 3.0 0.00 0.00 0.00 71 1013.1
20260905235958 88 219 0.0 2.0 0.00 0.00 0.00 70 1013.1
20260905235458 88 217 1.0 6.0 0.00 0.00 0.00 70 1013.0
20260905234958 88 204 1.0 6.0 0.00 0.00 0.00 69 1012.9
20260905234458 89 197 1.0 8.0 0.00 0.00 0.00 69 1012.8
20260905233958 89 200 1.0 8.0 0.00 0.00 0.00 68 1012.7
20260905233458 89 177 1.0 7.0 0.00 0.00 0.00 68 1012.7
20260905232957 89 191 2.0 11.0 0.00 0.00 0.00 67 1012.5
20260905232458 89 196 3.0 11.0 0.00 0.00 0.00 66 1012.4
20260905231958 89 200 2.0 7.0 0.00 0.00 0.00 66 1012.5
20260905231458 90 214 3.0 9.0 0.00 0.00 0.00 66 1012.5
20260905230457 90 209 2.0 7.0 0.00 0.00 0.00 65 1012.4
20260905225457 90 196 2.0 10.0 0.00 0.00 0.00 64 1012.4
20260905224958 90 172 2.0 6.0 0.00 0.00 0.00 64 1012.5
20260905224458 90 213 2.0 8.0 0.00 0.00 0.00 64 1012.5
20260905223959 90 212 3.0 11.0 0.00 0.00 0.00 63 1012.5
20260905223458 90 198 3.0 11.0 0.00 0.00 0.00 62 1012.4
20260905222958 90 195 4.0 12.0 0.00 0.00 0.00 61 1012.5
20260905222457 90 210 3.0 12.0 0.00 0.00 0.00 61 1012.4
20260905221957 91 198 2.0 8.0 0.00 0.00 0.00 60 1012.4
20260905221457 91 183 2.0 7.0 0.00 0.00 0.00 60 1012.5
20260905220958 91 199 2.0 9.0 0.00 0.00 0.00 60 1012.5
20260905220458 91 204 3.0 11.0 0.00 0.00 0.00 59 1012.4
20260905215958 91 188 3.0 11.0 0.00 0.00 0.00 58 1012.4
20260905215458 91 164 3.0 10.0 0.00 0.00 0.00 58 1012.4
20260905214457 91 186 3.0 11.0 0.00 0.00 0.00 58 1012.3
20260905213958 91 142 2.0 9.0 0.00 0.00 0.00 59 1012.3
20260905213457 91 172 2.0 10.0 0.00 0.00 0.00 58 1012.5
20260905212957 91 181 3.0 10.0 0.00 0.00 0.00 58 1012.5
20260905212457 91 169 2.0 9.0 0.00 0.00 0.00 57 1012.5
20260905211958 91 183 2.0 9.0 0.00 0.00 0.00 57 1012.5
20260905211457 91 169 2.0 9.0 0.00 0.00 0.00 59 1012.3
20260905210957 91 156 3.0 9.0 0.00 0.00 0.00 58 1012.3
20260905210457 91 174 2.0 14.0 0.00 0.00 0.00 58 1012.2
20260905205958 91 167 2.0 14.0 0.00 0.00 0.00 58 1012.3
20260905205458 90 144 2.0 7.0 0.00 0.00 0.00 58 1012.5
20260905204958 90 140 2.0 11.0 0.00 0.00 0.00 59 1012.7
20260905204458 90 126 2.0 11.0 0.00 0.00 0.00 60 1012.8
20260905203958 90 123 2.0 8.0 0.00 0.00 0.00 60 1012.8
20260905203458 90 126 2.0 8.0 0.00 0.00 0.00 61 1012.8
20260905202457 88 162 2.0 11.0 0.00 0.00 0.00 61 1012.7
20260905201958 88 148 3.0 11.0 0.00 0.00 0.00 63 1012.6
20260905201458 87 181 4.0 16.0 0.00 0.00 0.00 63 1012.7
20260905200958 87 195 3.0 16.0 0.00 0.00 0.00 63 1012.7
20260905200457 86 177 2.0 9.0 0.00 0.00 0.00 64 1012.6
20260905195958 86 148 2.0 10.0 0.00 0.00 0.00 64 1012.7
20260905195458 86 160 2.0 10.0 0.00 0.00 0.00 65 1012.8
20260905194958 85 174 2.0 11.0 0.00 0.00 0.00 66 1012.7
20260905194457 84 176 3.0 11.0 0.00 0.00 0.00 66 1012.7